Weather History for KDFW - August, 2014

Change the Weather History Date:

Friday, August 22, 2014

  Actual Average Record
Temperature  
Mean Temperature 90 °F 85 °F  
Max Temperature 100 °F 96 °F 105 °F (2010)
Min Temperature 80 °F 75 °F 61 °F (1956)
Degree Days  
Heating Degree Days 0 0  
Month to date heating degree days 0 0  
Since 1 June heating degree days 0 0  
Since 1 July heating degree days 0 0  
Cooling Degree Days 25 20  
Month to date cooling degree days 469 460  
Year to date cooling degree days 2061 2004  
Since 1 June cooling degree days 1585 1582  
Growing Degree Days 40 (Base 50)    
Moisture  
Dew Point 67 °F    
Average Humidity 53    
Maximum Humidity 79    
Minimum Humidity 27    
Precipitation  
Precipitation 0.00 in 0.06 in 2.47 in (1916)
Month to date precipitation 3.94 1.23  
Year to date precipitation 15.51 23.43  
Sea Level Pressure  
Sea Level Pressure 29.96 in    
Wind  
Wind Speed 14 mph (South)    
Max Wind Speed 23 mph    
Max Gust Speed 32 mph    
Visibility 10 miles    
Events      
T = Trace of Precipitation, MM = Missing Value Source: NWS Daily Summary

Daily Weather History Graph

Daily Weather History Graph

Search for Another Location

Airport or City:

Trip Planner

Search our weather history database for the weather conditions in past years. The results will help you decide how hot, cold, wet, or windy it might be!

Date:

Astronomy

Aug. 22, 2014 Rise Set
Actual Time 6:56 AM CDT 8:05 PM CDT
Civil Twilight 6:30 AM CDT 8:30 PM CDT
Nautical Twilight 5:59 AM CDT 9:01 PM CDT
Astronomical Twilight 5:28 AM CDT 9:32 PM CDT
Moon 4:23 AM CDT (8/22) 6:11 PM CDT (8/22)
Length of Visible Light 14h 00m
Length of Day
13h 09m
Waning Crescent, 7% of the Moon is Illuminated
Aug 22
Waning Crescent
Aug 25
New
Sep 2
First Quarter
Sep 8
Full
Sep 15
Last Quarter

Hourly Weather History & Observations

Time (CDT) Temp. Heat Index Dew Point Humidity Pressure Visibility Wind Dir Wind Speed Gust Speed Precip Events Conditions
12:53 AM 87.1 °F 89.9 °F 66.9 °F 51% 29.94 in 10.0 mi South 17.3 mph 27.6 mph N/A   Clear
1:53 AM 86.0 °F 89.4 °F 68.0 °F 55% 29.94 in 10.0 mi South 18.4 mph - N/A   Clear
2:53 AM 84.0 °F 88.4 °F 70.0 °F 63% 29.95 in 10.0 mi South 15.0 mph - N/A   Clear
3:53 AM 82.4 °F 87.2 °F 71.6 °F 70% 29.99 in 10.0 mi South 11.5 mph - N/A   Clear
4:53 AM 82.0 °F 86.7 °F 72.0 °F 71% 29.98 in 10.0 mi South 17.3 mph - N/A   Clear
5:53 AM 81.0 °F 85.8 °F 73.0 °F 77% 29.99 in 10.0 mi South 16.1 mph - N/A   Partly Cloudy
6:53 AM 80.6 °F 85.4 °F 73.4 °F 79% 30.04 in 10.0 mi South 17.3 mph - N/A   Partly Cloudy
7:53 AM 80.1 °F 84.2 °F 73.0 °F 79% 30.01 in 10.0 mi South 15.0 mph - N/A   Partly Cloudy
8:53 AM 82.9 °F 88.8 °F 73.0 °F 72% 30.01 in 10.0 mi SSW 17.3 mph - N/A   Partly Cloudy
9:53 AM 86.0 °F 91.8 °F 71.6 °F 62% 30.04 in 10.0 mi SSW 19.6 mph 26.5 mph N/A   Clear
10:53 AM 89.1 °F 92.9 °F 68.0 °F 50% 30.01 in 10.0 mi SSW 19.6 mph - N/A   Clear
11:53 AM 91.9 °F 95.4 °F 66.9 °F 44% 30.01 in 10.0 mi SSW 12.7 mph 20.7 mph N/A   Partly Cloudy
12:53 PM 93.9 °F 97.0 °F 66.0 °F 40% 30.00 in 10.0 mi SSW 15.0 mph 23.0 mph N/A   Partly Cloudy
1:53 PM 97.0 °F 100.4 °F 66.0 °F 36% 29.98 in 10.0 mi South 12.7 mph 21.9 mph N/A   Partly Cloudy
2:53 PM 98.1 °F 99.6 °F 63.0 °F 31% 29.96 in 10.0 mi SSW 15.0 mph 24.2 mph N/A   Partly Cloudy
3:53 PM 98.6 °F 100.0 °F 62.6 °F 30% 29.97 in 10.0 mi South 12.7 mph - N/A   Partly Cloudy
4:53 PM 100.0 °F 101.2 °F 61.0 °F 28% 29.92 in 10.0 mi SSW 10.4 mph - N/A   Partly Cloudy
5:53 PM 99.0 °F 100.5 °F 62.1 °F 30% 29.91 in 10.0 mi SSE 13.8 mph - N/A   Partly Cloudy
6:53 PM 97.0 °F 96.1 °F 57.9 °F 27% 29.90 in 10.0 mi South 12.7 mph - N/A   Clear
7:53 PM 93.9 °F 93.2 °F 59.0 °F 31% 29.89 in 10.0 mi South 10.4 mph - N/A   Clear
8:53 PM 90.0 °F 90.0 °F 61.0 °F 38% 29.90 in 10.0 mi SSE 9.2 mph - N/A   Clear
9:53 PM 90.0 °F 91.7 °F 64.9 °F 43% 29.92 in 10.0 mi SE 10.4 mph - N/A   Clear
10:53 PM 89.1 °F 92.1 °F 66.9 °F 48% 29.93 in 10.0 mi South 11.5 mph - N/A   Clear
11:53 PM 87.1 °F 89.2 °F 66.0 °F 49% 29.92 in 10.0 mi SSE 11.5 mph - N/A   Clear